1599343225,2020-09-06 00:00,451.00,-29
1599343285,2020-09-06 00:01,453.00,-32
1599343345,2020-09-06 00:02,451.00,-29
1599343405,2020-09-06 00:03,452.00,-29
1599343465,2020-09-06 00:04,453.00,-30
1599343526,2020-09-06 00:05,451.00,-29
1599343586,2020-09-06 00:06,452.00,-30
1599343646,2020-09-06 00:07,453.00,-29
1599343706,2020-09-06 00:08,451.00,-29
1599343766,2020-09-06 00:09,450.00,-29
1599343826,2020-09-06 00:10,453.00,-28
1599343886,2020-09-06 00:11,454.00,-30
1599343946,2020-09-06 00:12,451.00,-28
1599344006,2020-09-06 00:13,454.00,-30
1599344067,2020-09-06 00:14,452.00,-31
1599344127,2020-09-06 00:15,449.00,-29
1599344187,2020-09-06 00:16,445.00,-31
1599344247,2020-09-06 00:17,446.00,-29
1599344307,2020-09-06 00:18,447.00,-29
1599344367,2020-09-06 00:19,446.00,-29
1599344428,2020-09-06 00:20,446.00,-29
1599344488,2020-09-06 00:21,447.00,-30
1599344548,2020-09-06 00:22,449.00,-34
1599344608,2020-09-06 00:23,446.00,-30
1599344668,2020-09-06 00:24,447.00,-31
1599344728,2020-09-06 00:25,449.00,-32
1599344788,2020-09-06 00:26,449.00,-29
1599344848,2020-09-06 00:27,446.00,-29
1599344908,2020-09-06 00:28,446.00,-29
1599344968,2020-09-06 00:29,446.00,-29
1599345028,2020-09-06 00:30,448.00,-29
1599345089,2020-09-06 00:31,450.00,-30
1599345149,2020-09-06 00:32,446.00,-29
1599345209,2020-09-06 00:33,447.00,-29
1599345269,2020-09-06 00:34,447.00,-29
1599345329,2020-09-06 00:35,447.00,-29
1599345389,2020-09-06 00:36,447.00,-30
1599345449,2020-09-06 00:37,444.00,-29
1599345509,2020-09-06 00:38,446.00,-29
1599345569,2020-09-06 00:39,446.00,-31
1599345629,2020-09-06 00:40,448.00,-29
1599345689,2020-09-06 00:41,447.00,-29
1599345749,2020-09-06 00:42,449.00,-28
1599345809,2020-09-06 00:43,449.00,-30
1599345870,2020-09-06 00:44,445.00,-30
1599345930,2020-09-06 00:45,447.00,-29
1599345990,2020-09-06 00:46,445.00,-29
1599346050,2020-09-06 00:47,445.00,-29
1599346110,2020-09-06 00:48,445.00,-29
1599346170,2020-09-06 00:49,445.00,-32
1599346230,2020-09-06 00:50,443.00,-29
1599346290,2020-09-06 00:51,445.00,-29
1599346350,2020-09-06 00:52,443.00,-29
1599346410,2020-09-06 00:53,444.00,-29
1599346470,2020-09-06 00:54,445.00,-28
1599346530,2020-09-06 00:55,442.00,-31
1599346591,2020-09-06 00:56,441.00,-30
1599346651,2020-09-06 00:57,440.00,-28
1599346711,2020-09-06 00:58,439.00,-30
1599346771,2020-09-06 00:59,441.00,-29
1599346831,2020-09-06 01:00,443.00,-30
1599346891,2020-09-06 01:01,443.00,-28
1599346951,2020-09-06 01:02,442.00,-29
1599347011,2020-09-06 01:03,440.00,-29
1599347071,2020-09-06 01:04,442.00,-28
1599347131,2020-09-06 01:05,439.00,-28
1599347191,2020-09-06 01:06,441.00,-28
1599347251,2020-09-06 01:07,442.00,-31
1599347311,2020-09-06 01:08,442.00,-28
1599347371,2020-09-06 01:09,442.00,-28
1599347432,2020-09-06 01:10,444.00,-28
1599347492,2020-09-06 01:11,444.00,-28
1599347552,2020-09-06 01:12,441.00,-29
1599347612,2020-09-06 01:13,440.00,-29
1599347672,2020-09-06 01:14,443.00,-29
1599347732,2020-09-06 01:15,442.00,-28
1599347792,2020-09-06 01:16,441.00,-29
1599347852,2020-09-06 01:17,442.00,-28
1599347912,2020-09-06 01:18,442.00,-28
1599347972,2020-09-06 01:19,442.00,-29
1599348033,2020-09-06 01:20,440.00,-29
1599348093,2020-09-06 01:21,440.00,-28
1599348153,2020-09-06 01:22,443.00,-28
1599348213,2020-09-06 01:23,442.00,-32
1599348273,2020-09-06 01:24,443.00,-30
1599348333,2020-09-06 01:25,442.00,-28
1599348393,2020-09-06 01:26,442.00,-29
1599348453,2020-09-06 01:27,445.00,-31
1599348513,2020-09-06 01:28,444.00,-30
1599348573,2020-09-06 01:29,440.00,-29
1599348633,2020-09-06 01:30,443.00,-28
1599348693,2020-09-06 01:31,441.00,-29
1599348753,2020-09-06 01:32,442.00,-29
1599348813,2020-09-06 01:33,444.00,-29
1599348873,2020-09-06 01:34,443.00,-28
1599348934,2020-09-06 01:35,442.00,-29
1599348994,2020-09-06 01:36,441.00,-31
1599349054,2020-09-06 01:37,442.00,-28
1599349114,2020-09-06 01:38,442.00,-29
1599349174,2020-09-06 01:39,442.00,-29
1599349234,2020-09-06 01:40,442.00,-30
1599349294,2020-09-06 01:41,444.00,-31
1599349354,2020-09-06 01:42,441.00,-29
1599349414,2020-09-06 01:43,443.00,-30
1599349474,2020-09-06 01:44,443.00,-29
1599349534,2020-09-06 01:45,443.00,-28
1599349594,2020-09-06 01:46,443.00,-30
1599349654,2020-09-06 01:47,442.00,-28
1599349714,2020-09-06 01:48,442.00,-30
1599349775,2020-09-06 01:49,443.00,-28
1599349835,2020-09-06 01:50,444.00,-29
1599349895,2020-09-06 01:51,443.00,-30
1599349955,2020-09-06 01:52,444.00,-31
1599350015,2020-09-06 01:53,444.00,-29
1599350075,2020-09-06 01:54,446.00,-28
1599350135,2020-09-06 01:55,442.00,-28
1599350195,2020-09-06 01:56,443.00,-28
1599350255,2020-09-06 01:57,445.00,-28
1599350315,2020-09-06 01:58,445.00,-28
1599350375,2020-09-06 01:59,446.00,-30
1599350435,2020-09-06 02:00,446.00,-29
1599350495,2020-09-06 02:01,444.00,-29
1599350555,2020-09-06 02:02,444.00,-30
1599350616,2020-09-06 02:03,444.00,-30
1599350676,2020-09-06 02:04,444.00,-29
1599350736,2020-09-06 02:05,445.00,-30
1599350796,2020-09-06 02:06,446.00,-29
1599350856,2020-09-06 02:07,447.00,-29
1599350916,2020-09-06 02:08,445.00,-28
1599350976,2020-09-06 02:09,450.00,-29
1599351036,2020-09-06 02:10,446.00,-29
1599351096,2020-09-06 02:11,447.00,-29
1599351156,2020-09-06 02:12,449.00,-28
1599351216,2020-09-06 02:13,448.00,-32
1599351276,2020-09-06 02:14,446.00,-28
1599351336,2020-09-06 02:15,446.00,-29
1599351396,2020-09-06 02:16,448.00,-28
1599351456,2020-09-06 02:17,449.00,-31
1599351516,2020-09-06 02:18,447.00,-28
1599351576,2020-09-06 02:19,445.00,-31
1599351636,2020-09-06 02:20,446.00,-29
1599351696,2020-09-06 02:21,449.00,-29
1599351756,2020-09-06 02:22,448.00,-30
1599351816,2020-09-06 02:23,447.00,-29
1599351877,2020-09-06 02:24,450.00,-29
1599351937,2020-09-06 02:25,450.00,-29
1599351997,2020-09-06 02:26,450.00,-29
1599352057,2020-09-06 02:27,451.00,-30
1599352117,2020-09-06 02:28,448.00,-28
1599352177,2020-09-06 02:29,449.00,-30
1599352237,2020-09-06 02:30,449.00,-28
1599352297,2020-09-06 02:31,448.00,-29
1599352357,2020-09-06 02:32,446.00,-30
1599352417,2020-09-06 02:33,449.00,-32
1599352477,2020-09-06 02:34,450.00,-28
1599352537,2020-09-06 02:35,451.00,-30
1599352597,2020-09-06 02:36,447.00,-29
1599352657,2020-09-06 02:37,448.00,-28
1599352717,2020-09-06 02:38,447.00,-29
1599352778,2020-09-06 02:39,444.00,-31
1599352838,2020-09-06 02:40,446.00,-31
1599352898,2020-09-06 02:41,440.00,-30
1599352958,2020-09-06 02:42,442.00,-29
1599353018,2020-09-06 02:43,441.00,-29
1599353078,2020-09-06 02:44,443.00,-31
1599353138,2020-09-06 02:45,442.00,-31
1599353198,2020-09-06 02:46,443.00,-29
1599353258,2020-09-06 02:47,445.00,-28
1599353318,2020-09-06 02:48,444.00,-32
1599353378,2020-09-06 02:49,445.00,-31
1599353438,2020-09-06 02:50,445.00,-29
1599353498,2020-09-06 02:51,445.00,-31
1599353558,2020-09-06 02:52,444.00,-29
1599353618,2020-09-06 02:53,443.00,-29
1599353678,2020-09-06 02:54,442.00,-33
1599353738,2020-09-06 02:55,444.00,-29
1599353799,2020-09-06 02:56,444.00,-29
1599353859,2020-09-06 02:57,442.00,-29
1599353919,2020-09-06 02:58,446.00,-29
1599353979,2020-09-06 02:59,440.00,-28
1599354039,2020-09-06 03:00,441.00,-29
1599354099,2020-09-06 03:01,442.00,-28
1599354159,2020-09-06 03:02,445.00,-30
1599354219,2020-09-06 03:03,444.00,-29
1599354279,2020-09-06 03:04,445.00,-28
1599354339,2020-09-06 03:05,444.00,-28
1599354399,2020-09-06 03:06,444.00,-29
1599354459,2020-09-06 03:07,445.00,-32
1599354519,2020-09-06 03:08,445.00,-29
1599354579,2020-09-06 03:09,446.00,-30
1599354640,2020-09-06 03:10,445.00,-29
1599354700,2020-09-06 03:11,443.00,-28
1599354760,2020-09-06 03:12,442.00,-33
1599354820,2020-09-06 03:13,445.00,-31
1599354880,2020-09-06 03:14,446.00,-29
1599354940,2020-09-06 03:15,443.00,-29
1599355000,2020-09-06 03:16,444.00,-28
1599355060,2020-09-06 03:17,444.00,-29
1599355120,2020-09-06 03:18,443.00,-29
1599355180,2020-09-06 03:19,444.00,-30
1599355240,2020-09-06 03:20,446.00,-29
1599355300,2020-09-06 03:21,444.00,-30
1599355360,2020-09-06 03:22,442.00,-28
1599355420,2020-09-06 03:23,441.00,-29
1599355480,2020-09-06 03:24,441.00,-29
1599355541,2020-09-06 03:25,441.00,-28
1599355601,2020-09-06 03:26,444.00,-29
1599355661,2020-09-06 03:27,443.00,-29
1599355721,2020-09-06 03:28,444.00,-28
1599355781,2020-09-06 03:29,444.00,-30
1599355841,2020-09-06 03:30,443.00,-29
1599355901,2020-09-06 03:31,444.00,-30
1599355961,2020-09-06 03:32,443.00,-30
1599356021,2020-09-06 03:33,443.00,-30
1599356081,2020-09-06 03:34,442.00,-29
1599356141,2020-09-06 03:35,443.00,-28
1599356201,2020-09-06 03:36,440.00,-30
1599356261,2020-09-06 03:37,442.00,-28
1599356321,2020-09-06 03:38,443.00,-28
1599356381,2020-09-06 03:39,441.00,-28
1599356441,2020-09-06 03:40,439.00,-29
1599356501,2020-09-06 03:41,440.00,-28
1599356561,2020-09-06 03:42,443.00,-31
1599356621,2020-09-06 03:43,444.00,-31
1599356681,2020-09-06 03:44,443.00,-29
1599356741,2020-09-06 03:45,444.00,-28
1599356801,2020-09-06 03:46,438.00,-28
1599356861,2020-09-06 03:47,441.00,-28
1599356921,2020-09-06 03:48,440.00,-29
1599356981,2020-09-06 03:49,440.00,-29
1599357042,2020-09-06 03:50,439.00,-31
1599357102,2020-09-06 03:51,439.00,-29
1599357162,2020-09-06 03:52,442.00,-30
1599357222,2020-09-06 03:53,440.00,-28
1599357282,2020-09-06 03:54,440.00,-29
1599357342,2020-09-06 03:55,442.00,-29
1599357402,2020-09-06 03:56,440.00,-29
1599357462,2020-09-06 03:57,439.00,-28
1599357522,2020-09-06 03:58,440.00,-28
1599357582,2020-09-06 03:59,440.00,-30
1599357642,2020-09-06 04:00,441.00,-28
1599357702,2020-09-06 04:01,440.00,-28
1599357762,2020-09-06 04:02,439.00,-29
1599357822,2020-09-06 04:03,437.00,-29
1599357882,2020-09-06 04:04,437.00,-28
1599357942,2020-09-06 04:05,438.00,-28
1599358002,2020-09-06 04:06,438.00,-30
1599358062,2020-09-06 04:07,436.00,-30
1599358122,2020-09-06 04:08,437.00,-29
1599358183,2020-09-06 04:09,439.00,-28
1599358243,2020-09-06 04:10,440.00,-28
1599358303,2020-09-06 04:11,439.00,-29
1599358363,2020-09-06 04:12,441.00,-28
1599358423,2020-09-06 04:13,440.00,-28
1599358483,2020-09-06 04:14,441.00,-29
1599358543,2020-09-06 04:15,443.00,-28
1599358603,2020-09-06 04:16,440.00,-30
1599358663,2020-09-06 04:17,438.00,-28
1599358723,2020-09-06 04:18,442.00,-29
1599358783,2020-09-06 04:19,445.00,-32
1599358843,2020-09-06 04:20,443.00,-29
1599358903,2020-09-06 04:21,442.00,-29
1599358963,2020-09-06 04:22,444.00,-30
1599359023,2020-09-06 04:23,441.00,-28
1599359083,2020-09-06 04:24,442.00,-30
1599359143,2020-09-06 04:25,442.00,-29
1599359203,2020-09-06 04:26,442.00,-28
1599359263,2020-09-06 04:27,443.00,-30
1599359324,2020-09-06 04:28,440.00,-28
1599359384,2020-09-06 04:29,443.00,-28
1599359444,2020-09-06 04:30,442.00,-29
1599359504,2020-09-06 04:31,445.00,-28
1599359564,2020-09-06 04:32,441.00,-28
1599359624,2020-09-06 04:33,441.00,-28
1599359684,2020-09-06 04:34,442.00,-29
1599359744,2020-09-06 04:35,443.00,-29
1599359804,2020-09-06 04:36,443.00,-29
1599359864,2020-09-06 04:37,444.00,-30
1599359925,2020-09-06 04:38,442.00,-28
1599359985,2020-09-06 04:39,442.00,-29
1599360045,2020-09-06 04:40,443.00,-30
1599360105,2020-09-06 04:41,443.00,-28
1599360165,2020-09-06 04:42,442.00,-31
1599360225,2020-09-06 04:43,441.00,-29
1599360285,2020-09-06 04:44,444.00,-28
1599360345,2020-09-06 04:45,442.00,-31
1599360405,2020-09-06 04:46,441.00,-28
1599360465,2020-09-06 04:47,439.00,-29
1599360525,2020-09-06 04:48,443.00,-29
1599360585,2020-09-06 04:49,444.00,-30
1599360645,2020-09-06 04:50,442.00,-32
1599360705,2020-09-06 04:51,443.00,-30
1599360765,2020-09-06 04:52,444.00,-28
1599360825,2020-09-06 04:53,444.00,-28
1599360885,2020-09-06 04:54,447.00,-28
1599360945,2020-09-06 04:55,446.00,-29
1599361005,2020-09-06 04:56,447.00,-28
1599361065,2020-09-06 04:57,445.00,-28
1599361125,2020-09-06 04:58,447.00,-29
1599361185,2020-09-06 04:59,446.00,-27
1599361245,2020-09-06 05:00,446.00,-28
1599361305,2020-09-06 05:01,447.00,-30
1599361365,2020-09-06 05:02,448.00,-29
1599361426,2020-09-06 05:03,447.00,-29
1599361486,2020-09-06 05:04,445.00,-30
1599361546,2020-09-06 05:05,446.00,-28
1599361606,2020-09-06 05:06,446.00,-28
1599361666,2020-09-06 05:07,447.00,-30
1599361726,2020-09-06 05:08,448.00,-29
1599361786,2020-09-06 05:09,447.00,-28
1599361846,2020-09-06 05:10,452.00,-29
1599361906,2020-09-06 05:11,452.00,-29
1599361966,2020-09-06 05:12,450.00,-29
1599362026,2020-09-06 05:13,450.00,-30
1599362086,2020-09-06 05:14,449.00,-29
1599362146,2020-09-06 05:15,449.00,-28
1599362206,2020-09-06 05:16,449.00,-28
1599362266,2020-09-06 05:17,448.00,-28
1599362326,2020-09-06 05:18,444.00,-30
1599362386,2020-09-06 05:19,451.00,-28
1599362446,2020-09-06 05:20,447.00,-28
1599362506,2020-09-06 05:21,447.00,-28
1599362566,2020-09-06 05:22,447.00,-30
1599362626,2020-09-06 05:23,446.00,-30
1599362686,2020-09-06 05:24,444.00,-30
1599362747,2020-09-06 05:25,445.00,-28
1599362807,2020-09-06 05:26,442.00,-28
1599362867,2020-09-06 05:27,445.00,-28
1599362927,2020-09-06 05:28,447.00,-28
1599362987,2020-09-06 05:29,447.00,-28
1599363047,2020-09-06 05:30,447.00,-29
1599363107,2020-09-06 05:31,444.00,-30
1599363167,2020-09-06 05:32,447.00,-31
1599363227,2020-09-06 05:33,444.00,-30
1599363287,2020-09-06 05:34,443.00,-29
1599363347,2020-09-06 05:35,443.00,-28
1599363407,2020-09-06 05:36,442.00,-28
1599363467,2020-09-06 05:37,445.00,-28
1599363527,2020-09-06 05:38,443.00,-28
1599363587,2020-09-06 05:39,444.00,-28
1599363647,2020-09-06 05:40,444.00,-29
1599363707,2020-09-06 05:41,443.00,-28
1599363767,2020-09-06 05:42,442.00,-27
1599363827,2020-09-06 05:43,444.00,-27
1599363887,2020-09-06 05:44,444.00,-28
1599363947,2020-09-06 05:45,442.00,-27
1599364007,2020-09-06 05:46,443.00,-29
1599364067,2020-09-06 05:47,444.00,-29
1599364128,2020-09-06 05:48,447.00,-27
1599364188,2020-09-06 05:49,444.00,-28
1599364248,2020-09-06 05:50,445.00,-28
1599364308,2020-09-06 05:51,445.00,-28
1599364368,2020-09-06 05:52,445.00,-28
1599364428,2020-09-06 05:53,447.00,-29
1599364488,2020-09-06 05:54,446.00,-28
1599364548,2020-09-06 05:55,447.00,-28
1599364608,2020-09-06 05:56,445.00,-31
1599364668,2020-09-06 05:57,448.00,-28
1599364728,2020-09-06 05:58,447.00,-29
1599364788,2020-09-06 05:59,446.00,-28
1599364849,2020-09-06 06:00,444.00,-30
1599364909,2020-09-06 06:01,447.00,-33
1599364969,2020-09-06 06:02,446.00,-29
1599365029,2020-09-06 06:03,447.00,-28
1599365089,2020-09-06 06:04,447.00,-30
1599365149,2020-09-06 06:05,444.00,-28
1599365209,2020-09-06 06:06,443.00,-28
1599365269,2020-09-06 06:07,445.00,-28
1599365329,2020-09-06 06:08,445.00,-29
1599365389,2020-09-06 06:09,447.00,-27
1599365449,2020-09-06 06:10,447.00,-29
1599365509,2020-09-06 06:11,446.00,-28
1599365569,2020-09-06 06:12,446.00,-28
1599365629,2020-09-06 06:13,445.00,-29
1599365689,2020-09-06 06:14,447.00,-29
1599365749,2020-09-06 06:15,445.00,-28
1599365810,2020-09-06 06:16,446.00,-31
1599365870,2020-09-06 06:17,447.00,-30
1599365930,2020-09-06 06:18,445.00,-29
1599365990,2020-09-06 06:19,448.00,-28
1599366050,2020-09-06 06:20,447.00,-28
1599366110,2020-09-06 06:21,447.00,-29
1599366170,2020-09-06 06:22,448.00,-27
1599366230,2020-09-06 06:23,446.00,-29
1599366290,2020-09-06 06:24,448.00,-28
1599366350,2020-09-06 06:25,449.00,-28
1599366410,2020-09-06 06:26,447.00,-28
1599366470,2020-09-06 06:27,450.00,-29
1599366530,2020-09-06 06:28,447.00,-31
1599366590,2020-09-06 06:29,448.00,-28
1599366650,2020-09-06 06:30,448.00,-27
1599366710,2020-09-06 06:31,446.00,-29
1599366770,2020-09-06 06:32,445.00,-29
1599366830,2020-09-06 06:33,445.00,-29
1599366890,2020-09-06 06:34,448.00,-28
1599366950,2020-09-06 06:35,448.00,-30
1599367011,2020-09-06 06:36,450.00,-28
1599367071,2020-09-06 06:37,447.00,-28
1599367131,2020-09-06 06:38,448.00,-28
1599367191,2020-09-06 06:39,446.00,-28
1599367251,2020-09-06 06:40,446.00,-30
1599367311,2020-09-06 06:41,446.00,-29
1599367371,2020-09-06 06:42,449.00,-28
1599367431,2020-09-06 06:43,452.00,-29
1599367491,2020-09-06 06:44,450.00,-27
1599367552,2020-09-06 06:45,450.00,-28
1599367612,2020-09-06 06:46,450.00,-29
1599367672,2020-09-06 06:47,449.00,-29
1599367732,2020-09-06 06:48,449.00,-29
1599367792,2020-09-06 06:49,449.00,-30
1599367852,2020-09-06 06:50,448.00,-28
1599367912,2020-09-06 06:51,451.00,-29
1599367972,2020-09-06 06:52,450.00,-28
1599368032,2020-09-06 06:53,451.00,-28
1599368092,2020-09-06 06:54,451.00,-28
1599368152,2020-09-06 06:55,448.00,-30
1599368213,2020-09-06 06:56,450.00,-30
1599368273,2020-09-06 06:57,450.00,-27
1599368333,2020-09-06 06:58,450.00,-28
1599368393,2020-09-06 06:59,448.00,-28
1599368453,2020-09-06 07:00,447.00,-28
1599368513,2020-09-06 07:01,447.00,-28
1599368573,2020-09-06 07:02,448.00,-32
1599368633,2020-09-06 07:03,448.00,-29
1599368693,2020-09-06 07:04,449.00,-31
1599368753,2020-09-06 07:05,447.00,-28
1599368813,2020-09-06 07:06,448.00,-31
1599368873,2020-09-06 07:07,449.00,-29
1599368934,2020-09-06 07:08,445.00,-28
1599368994,2020-09-06 07:09,446.00,-29
1599369054,2020-09-06 07:10,447.00,-29
1599369114,2020-09-06 07:11,446.00,-31
1599369174,2020-09-06 07:12,447.00,-30
1599369234,2020-09-06 07:13,449.00,-28
1599369294,2020-09-06 07:14,447.00,-29
1599369354,2020-09-06 07:15,448.00,-28
1599369414,2020-09-06 07:16,447.00,-28
1599369474,2020-09-06 07:17,448.00,-30
1599369534,2020-09-06 07:18,446.00,-28
1599369595,2020-09-06 07:19,446.00,-28
1599369655,2020-09-06 07:20,447.00,-28
1599369715,2020-09-06 07:21,446.00,-32
1599369775,2020-09-06 07:22,447.00,-31
1599369835,2020-09-06 07:23,444.00,-31
1599369896,2020-09-06 07:24,447.00,-32
1599369956,2020-09-06 07:25,443.00,-31
1599370016,2020-09-06 07:26,443.00,-30
1599370076,2020-09-06 07:27,445.00,-30
1599370136,2020-09-06 07:28,446.00,-32
1599370196,2020-09-06 07:29,448.00,-33
1599370256,2020-09-06 07:30,445.00,-31
1599370316,2020-09-06 07:31,445.00,-33
1599370377,2020-09-06 07:32,445.00,-31
1599370437,2020-09-06 07:33,444.00,-33
1599370497,2020-09-06 07:34,445.00,-33
1599370557,2020-09-06 07:35,443.00,-31
1599370617,2020-09-06 07:36,443.00,-30
1599370677,2020-09-06 07:37,442.00,-32
1599370737,2020-09-06 07:38,444.00,-31
1599370797,2020-09-06 07:39,442.00,-32
1599370858,2020-09-06 07:40,440.00,-32
1599370918,2020-09-06 07:41,441.00,-32
1599370978,2020-09-06 07:42,442.00,-33
1599371038,2020-09-06 07:43,444.00,-32
1599371098,2020-09-06 07:44,442.00,-32
1599371158,2020-09-06 07:45,443.00,-33
1599371219,2020-09-06 07:46,442.00,-30
1599371279,2020-09-06 07:47,442.00,-31
1599371339,2020-09-06 07:48,441.00,-34
1599371399,2020-09-06 07:49,443.00,-30
1599371460,2020-09-06 07:51,442.00,-31
1599371520,2020-09-06 07:52,440.00,-32
1599371580,2020-09-06 07:53,441.00,-32
1599371640,2020-09-06 07:54,443.00,-32
1599371700,2020-09-06 07:55,442.00,-31
1599371761,2020-09-06 07:56,441.00,-29
1599371821,2020-09-06 07:57,442.00,-29
1599371881,2020-09-06 07:58,443.00,-32
1599371941,2020-09-06 07:59,443.00,-29
1599372001,2020-09-06 08:00,442.00,-29
1599372061,2020-09-06 08:01,440.00,-31
1599372122,2020-09-06 08:02,443.00,-31
1599372182,2020-09-06 08:03,443.00,-31
1599372242,2020-09-06 08:04,440.00,-29
1599372302,2020-09-06 08:05,440.00,-30
1599372362,2020-09-06 08:06,442.00,-29
1599372422,2020-09-06 08:07,441.00,-29
1599372483,2020-09-06 08:08,439.00,-29
1599372543,2020-09-06 08:09,437.00,-30
1599372603,2020-09-06 08:10,440.00,-30
1599372663,2020-09-06 08:11,439.00,-32
1599372723,2020-09-06 08:12,438.00,-29
1599372783,2020-09-06 08:13,440.00,-30
1599372843,2020-09-06 08:14,438.00,-30
1599372904,2020-09-06 08:15,437.00,-30
1599372964,2020-09-06 08:16,436.00,-29
1599373024,2020-09-06 08:17,438.00,-28
1599373084,2020-09-06 08:18,438.00,-30
1599373144,2020-09-06 08:19,440.00,-28
1599373205,2020-09-06 08:20,438.00,-34
1599373265,2020-09-06 08:21,437.00,-30
1599373325,2020-09-06 08:22,438.00,-30
1599373385,2020-09-06 08:23,437.00,-30
1599373446,2020-09-06 08:24,437.00,-28
1599373506,2020-09-06 08:25,438.00,-32
1599373567,2020-09-06 08:26,436.00,-29
1599373627,2020-09-06 08:27,438.00,-29
1599373688,2020-09-06 08:28,435.00,-29
1599373748,2020-09-06 08:29,438.00,-29
1599373809,2020-09-06 08:30,438.00,-28
1599373869,2020-09-06 08:31,438.00,-29
1599373929,2020-09-06 08:32,437.00,-31
1599373990,2020-09-06 08:33,438.00,-33
1599374050,2020-09-06 08:34,437.00,-29
1599374110,2020-09-06 08:35,439.00,-32
1599374170,2020-09-06 08:36,437.00,-31
1599374230,2020-09-06 08:37,437.00,-29
1599374290,2020-09-06 08:38,440.00,-29
1599374350,2020-09-06 08:39,438.00,-30
1599374410,2020-09-06 08:40,440.00,-31
1599374470,2020-09-06 08:41,441.00,-30
1599374531,2020-09-06 08:42,440.00,-29
1599374591,2020-09-06 08:43,436.00,-29
1599374651,2020-09-06 08:44,436.00,-31
1599374711,2020-09-06 08:45,433.00,-33
1599374771,2020-09-06 08:46,435.00,-32
1599374832,2020-09-06 08:47,434.00,-30
1599374892,2020-09-06 08:48,433.00,-30
1599374952,2020-09-06 08:49,435.00,-29
1599375012,2020-09-06 08:50,438.00,-30
1599375195,2020-09-06 08:53,439.00,-30
1599375255,2020-09-06 08:54,439.00,-31
1599375315,2020-09-06 08:55,436.00,-31
1599375376,2020-09-06 08:56,434.00,-30
1599375436,2020-09-06 08:57,437.00,-30
1599375496,2020-09-06 08:58,435.00,-30
1599375556,2020-09-06 08:59,432.00,-32
1599375617,2020-09-06 09:00,431.00,-30
1599375677,2020-09-06 09:01,431.00,-31
1599375737,2020-09-06 09:02,429.00,-30
1599375798,2020-09-06 09:03,431.00,-31
1599375858,2020-09-06 09:04,428.00,-31
1599375918,2020-09-06 09:05,428.00,-30
1599375979,2020-09-06 09:06,430.00,-33
1599376102,2020-09-06 09:08,428.00,-31
1599376162,2020-09-06 09:09,426.00,-30
1599376222,2020-09-06 09:10,429.00,-30
1599376283,2020-09-06 09:11,432.00,-32
1599376343,2020-09-06 09:12,433.00,-33
1599376403,2020-09-06 09:13,433.00,-30
1599376463,2020-09-06 09:14,429.00,-32
1599376523,2020-09-06 09:15,430.00,-33
1599376583,2020-09-06 09:16,431.00,-30
1599376643,2020-09-06 09:17,430.00,-32
1599376707,2020-09-06 09:18,430.00,-31
1599376767,2020-09-06 09:19,428.00,-31
1599376827,2020-09-06 09:20,425.00,-32
1599376887,2020-09-06 09:21,427.00,-30
1599376947,2020-09-06 09:22,427.00,-31
1599377007,2020-09-06 09:23,428.00,-31
1599377067,2020-09-06 09:24,427.00,-30
1599377127,2020-09-06 09:25,422.00,-30
1599377187,2020-09-06 09:26,423.00,-30
1599377248,2020-09-06 09:27,422.00,-32
1599377308,2020-09-06 09:28,426.00,-31
1599377368,2020-09-06 09:29,427.00,-31
1599377428,2020-09-06 09:30,426.00,-32
1599377488,2020-09-06 09:31,427.00,-31
1599377548,2020-09-06 09:32,428.00,-30
1599377608,2020-09-06 09:33,426.00,-30
1599377668,2020-09-06 09:34,425.00,-31
1599377729,2020-09-06 09:35,424.00,-30
1599377789,2020-09-06 09:36,422.00,-30
1599377849,2020-09-06 09:37,423.00,-33
1599377909,2020-09-06 09:38,424.00,-32
1599377969,2020-09-06 09:39,421.00,-33
1599378029,2020-09-06 09:40,421.00,-31
1599378089,2020-09-06 09:41,424.00,-30
1599378149,2020-09-06 09:42,421.00,-30
1599378209,2020-09-06 09:43,423.00,-31
1599378269,2020-09-06 09:44,422.00,-32
1599378329,2020-09-06 09:45,424.00,-30
1599378389,2020-09-06 09:46,424.00,-31
1599378450,2020-09-06 09:47,424.00,-30
1599378510,2020-09-06 09:48,422.00,-31
1599378570,2020-09-06 09:49,422.00,-32
1599378630,2020-09-06 09:50,423.00,-32
1599378691,2020-09-06 09:51,428.00,-30
1599378752,2020-09-06 09:52,425.00,-30
1599378812,2020-09-06 09:53,425.00,-30
1599378872,2020-09-06 09:54,421.00,-31
1599378932,2020-09-06 09:55,422.00,-30
1599378993,2020-09-06 09:56,421.00,-28
1599379053,2020-09-06 09:57,421.00,-28
1599379113,2020-09-06 09:58,423.00,-28
1599379173,2020-09-06 09:59,421.00,-27
1599379233,2020-09-06 10:00,418.00,-28
1599379293,2020-09-06 10:01,421.00,-30
1599379353,2020-09-06 10:02,422.00,-29
1599379413,2020-09-06 10:03,419.00,-28
1599379474,2020-09-06 10:04,419.00,-31
1599379534,2020-09-06 10:05,419.00,-31
1599379594,2020-09-06 10:06,419.00,-30
1599379654,2020-09-06 10:07,420.00,-35
1599379714,2020-09-06 10:08,421.00,-28
1599379774,2020-09-06 10:09,423.00,-29
1599379834,2020-09-06 10:10,422.00,-30
1599379894,2020-09-06 10:11,421.00,-28
1599379954,2020-09-06 10:12,420.00,-27
1599380014,2020-09-06 10:13,418.00,-29
1599380075,2020-09-06 10:14,421.00,-28
1599380135,2020-09-06 10:15,421.00,-29
1599380195,2020-09-06 10:16,420.00,-30
1599380255,2020-09-06 10:17,419.00,-28
1599380315,2020-09-06 10:18,420.00,-29